Wind_Speed
41 42 41 41 41 42 43 43 43 42 44 44 44 44 44 43 43 44 44 44 45 45 46 46 47 47 47 47 46 45 45 44 43 42 42 41 41 40 40 40 39 39 39 38 38 37 37 37 38 38 39 39 40 41 42 43 44 45 45 46 46 46 46 46 46 46 46 46 45 45 45 45 45 45 45 45 45 46 46 46 46 45 46 46 46 47
40 41 40 40 40 41 42 43 42 41 42 43 44 44 44 44 44 45 45 45 45 45 45 46 46 47 47 47 47 46 45 45 44 43 43 42 42 41 41 40 40 40 40 39 39 38 38 38 38 38 38 39 39 40 41 42 43 44 45 46 46 47 47 47 47 47 47 46 46 46 46 46 46 46 46 46 46 46 46 47 47 48 48 47 47 46
41 41 41 40 40 41 42 43 43 42 42 43 44 44 44 44 45 45 45 45 45 45 45 46 46 47 48 48 48 47 47 46 45 44 43 43 42 42 42 41 41 41 41 41 41 40 40 39 39 39 39 39 39 40 40 40 41 43 44 45 46 46 47 47 47 47 47 47 47 47 47 47 47 47 47 46 46 47 47 48 49 50 49 48 47 47
42 41 41 41 40 41 42 42 43 42 42 42 43 44 44 44 44 44 44 44 45 45 46 46 47 47 48 48 48 48 47 46 46 45 44 44 43 43 43 42 42 42 42 42 42 42 42 41 41 40 40 40 41 41 41 41 41 42 42 43 44 45 46 46 47 47 47 47 47 47 48 48 48 48 48 47 47 47 47 48 49 49 49 48 48 48
43 42 41 41 40 41 43 42 42 42 42 42 43 43 43 43 43 44 44 44 44 45 46 46 47 47 48 48 49 49 48 47 46 45 45 45 44 44 43 43 43 43 43 43 43 43 43 43 43 42 42 42 42 42 42 43 42 42 42 43 44 44 45 46 46 46 47 47 47 48 48 48 48 48 48 48 47 47 47 48 49 49 49 49 49 48
44 43 41 40 40 41 43 42 41 41 41 41 42 42 42 42 42 43 43 43 43 44 45 45 45 46 47 48 49 49 48 47 47 46 46 46 45 45 44 44 44 44 43 43 43 43 44 44 44 44 43 43 43 43 44 44 44 44 44 44 45 45 45 46 46 47 47 47 48 48 48 49 49 49 48 48 47 47 47 48 48 49 49 49 49 49
44 43 41 42 42 43 43 42 42 41 40 40 41 42 42 42 42 42 43 44 44 45 45 46 46 47 48 49 49 49 49 48 47 47 47 46 46 45 45 45 44 44 44 44 44 44 44 44 45 45 44 44 44 44 44 45 45 45 45 46 46 46 47 47 47 47 48 48 48 49 49 49 49 49 49 48 48 47 47 47 48 48 49 49 49 49
44 44 44 43 44 45 44 43 43 41 40 40 41 42 42 43 42 42 44 45 46 46 45 46 46 47 48 48 48 48 48 48 48 48 48 47 47 46 46 46 45 45 45 44 44 44 44 44 45 45 44 44 44 44 44 44 45 45 45 46 46 47 47 48 48 48 48 48 49 49 49 49 49 49 49 48 48 48 48 48 48 48 49 49 49 50
44 45 46 44 44 45 44 44 43 41 40 39 40 41 43 44 44 43 43 43 43 43 42 43 44 46 47 47 47 47 47 47 48 49 49 49 48 48 48 47 47 47 46 46 45 44 44 44 44 44 44 43 43 43 43 43 43 44 44 45 45 46 47 48 47 47 47 48 48 48 49 49 49 49 49 49 49 49 49 49 49 49 49 49 49 50
44 44 45 45 44 43 42 43 43 42 40 39 40 41 42 42 42 42 42 42 41 40 39 40 41 43 45 46 46 46 45 47 48 48 49 49 49 49 49 49 49 48 48 47 46 45 45 44 44 44 44 43 43 43 43 43 42 42 42 42 43 44 45 46 46 46 46 47 47 48 48 48 48 48 49 49 50 50 50 50 49 49 49 49 49 49
43 43 43 43 42 41 40 41 41 42 40 39 39 40 40 40 39 40 41 42 42 41 39 39 40 42 43 44 44 45 46 47 48 49 50 50 49 49 49 48 48 48 48 47 47 46 45 45 45 45 45 44 44 44 44 43 42 42 41 41 41 42 43 44 45 45 45 46 46 46 47 47 48 48 49 49 50 50 49 49 48 48 48 48 48 49
41 41 40 41 41 40 40 40 40 39 38 38 38 38 39 39 38 38 40 42 43 43 43 43 43 43 44 45 46 46 45 46 47 48 48 49 48 48 47 47 47 47 47 47 47 46 46 46 45 45 45 45 45 45 44 44 43 43 42 41 41 41 41 42 43 44 44 44 44 45 45 46 46 47 48 48 48 48 47 47 47 48 48 48 48 49
41 41 40 40 41 41 40 40 39 38 37 36 36 37 37 38 38 37 39 42 43 44 43 42 43 43 44 44 44 43 42 42 42 43 44 44 45 45 45 45 45 46 46 46 47 47 46 46 45 45 45 45 45 45 45 45 45 44 43 42 41 41 41 41 42 42 43 43 44 44 44 45 45 45 45 45 46 46 46 46 47 47 47 47 48 48
41 41 40 40 41 41 40 39 39 38 38 37 37 38 39 39 38 37 38 39 42 43 43 42 43 44 45 44 42 41 40 40 41 41 42 43 43 43 43 43 43 44 44 44 44 45 46 45 45 45 45 45 46 46 46 46 45 45 44 44 43 43 43 43 43 43 43 43 43 44 44 44 44 43 42 43 44 44 45 45 46 46 46 47 47 48
41 40 40 41 41 41 40 40 39 40 40 40 40 40 41 41 40 39 38 40 42 43 42 41 43 46 46 45 42 41 40 41 42 43 43 44 44 44 43 44 44 44 43 43 45 46 45 45 45 45 45 45 46 46 46 46 46 46 46 45 45 45 44 44 44 44 44 44 44 44 44 44 43 42 42 42 43 44 44 45 45 45 46 46 47 47
41 40 40 41 42 42 41 39 38 39 41 41 40 39 39 40 41 41 41 41 41 41 41 41 42 44 45 45 42 39 37 38 40 42 44 44 44 43 42 42 43 44 44 44 44 44 44 45 45 45 45 46 47 47 47 47 47 48 47 47 46 46 46 45 45 45 44 44 44 44 45 45 44 43 42 42 43 43 44 44 45 45 45 46 46 46
41 41 41 42 42 43 42 41 40 41 41 41 41 41 41 41 41 41 41 41 41 40 39 40 40 41 42 43 40 36 33 33 35 38 41 42 43 43 41 40 41 44 46 45 46 46 46 46 46 46 46 47 48 48 49 49 49 49 48 48 47 47 47 46 46 45 45 45 45 45 45 45 45 44 43 43 43 44 44 45 45 45 45 46 46 46
42 42 42 42 42 43 44 43 41 40 40 41 42 42 41 41 42 42 42 42 41 40 40 40 40 41 42 42 41 38 33 32 34 36 39 43 46 46 44 42 42 44 47 48 50 51 50 50 51 51 50 49 49 49 49 49 49 49 49 48 48 47 47 47 46 46 46 45 45 45 46 46 46 46 45 45 45 45 45 45 46 46 46 46 46 46
44 44 44 44 43 44 45 45 44 42 41 41 42 42 42 42 42 42 42 42 42 42 42 41 41 42 42 43 45 43 38 35 35 37 41 45 48 50 48 46 44 46 48 51 53 53 53 53 53 53 52 50 50 49 49 49 49 49 49 49 48 48 48 48 48 47 47 47 46 47 47 47 47 47 47 46 46 46 46 47 47 47 47 47 47 47
48 48 47 46 46 47 47 47 46 45 43 43 44 45 45 46 46 45 45 44 44 44 44 44 45 45 45 45 47 46 41 38 37 38 41 44 47 50 49 45 43 44 47 49 50 51 51 51 50 49 49 49 50 50 50 50 50 50 50 50 49 49 49 48 48 48 48 48 48 48 48 48 48 48 48 48 48 48 48 48 48 48 48 48 48 48
55 55 53 51 50 51 51 50 50 49 47 47 48 49 51 50 49 48 47 46 45 45 45 46 48 49 47 46 47 47 42 38 37 38 39 42 45 48 48 44 42 43 46 48 49 48 48 48 48 48 50 50 50 50 50 50 50 50 50 50 49 49 49 49 49 48 48 48 49 49 49 49 49 49 49 49 49 49 49 49 49 49 49 49 49 49
58 57 56 55 54 54 54 54 54 53 52 51 51 51 51 50 48 47 47 46 46 46 47 48 50 51 51 51 51 50 47 43 41 41 39 41 45 50 50 44 41 41 44 46 47 47 46 46 46 48 50 50 50 50 50 50 50 50 50 49 49 49 49 48 48 48 48 48 49 49 49 49 49 49 49 49 49 49 49 49 49 50 50 50 50 50
61 60 58 57 57 57 57 57 58 58 57 55 54 53 53 52 51 51 51 50 50 50 52 53 54 55 57 57 56 55 51 47 45 44 42 44 47 50 50 45 41 40 42 44 45 45 45 45 47 49 50 50 50 50 50 50 50 50 49 49 49 49 48 48 48 48 48 48 49 49 49 49 49 49 49 49 49 49 49 49 49 50 50 50 50 50
60 60 59 59 59 60 60 60 59 57 56 56 57 57 55 55 54 54 53 53 53 53 55 55 56 57 56 56 55 52 50 46 42 42 43 44 46 48 47 44 42 42 44 45 46 45 44 45 47 48 49 49 49 50 50 49 49 49 49 49 48 48 48 48 48 48 48 48 48 49 49 49 49 49 49 50 50 50 49 50 50 50 50 50 50 50
54 55 56 57 57 56 54 52 51 50 50 51 52 52 49 48 48 49 50 50 50 49 49 49 49 49 50 50 47 45 45 41 38 38 40 41 43 46 46 44 42 42 44 46 46 44 44 44 45 47 48 49 49 50 49 49 49 49 48 48 48 48 47 47 47 48 48 48 48 48 49 49 49 49 49 50 50 50 50 50 50 50 50 50 50 50
46 48 49 50 50 50 50 50 50 50 50 49 47 46 46 46 47 48 48 47 46 44 43 42 43 44 44 42 41 41 41 37 34 35 37 39 41 44 46 44 42 41 43 45 44 43 42 43 45 47 48 49 50 49 48 48 48 48 48 48 48 47 47 47 47 47 47 47 47 48 48 48 49 49 49 49 50 50 50 50 50 50 51 50 50 50
47 48 48 49 51 53 55 56 55 53 52 52 53 53 52 51 50 50 49 48 45 43 42 40 41 42 43 42 42 42 40 36 33 33 35 38 41 44 45 44 41 39 40 41 42 41 40 41 42 44 45 46 47 47 46 46 47 47 47 47 46 46 46 46 46 46 46 46 47 47 48 48 48 48 49 49 49 49 49 49 50 50 50 50 50 50
48 48 48 49 49 49 48 47 47 48 48 49 49 48 47 47 47 47 46 44 43 42 42 42 42 42 44 44 45 45 42 38 36 35 35 37 39 43 45 43 41 38 39 40 41 41 40 40 41 43 43 43 43 44 45 46 46 46 46 46 45 45 45 45 46 46 46 46 46 46 46 46 47 47 47 47 47 47 48 48 48 48 48 48 49 50
43 42 42 43 43 44 45 45 46 46 46 46 45 44 42 43 44 45 45 44 43 43 42 42 41 40 41 41 42 42 41 40 38 36 35 36 40 43 44 42 39 37 36 37 38 38 39 40 40 41 42 42 42 42 44 45 46 46 46 45 45 45 45 45 45 45 46 46 46 45 45 45 45 45 45 45 45 45 45 45 45 45 45 46 47 49
42 43 44 45 46 46 46 47 46 45 44 42 41 40 39 39 40 42 43 43 43 43 42 42 41 39 38 38 38 38 39 39 36 32 31 34 37 40 40 38 36 35 33 31 31 33 36 38 38 38 39 40 41 41 43 43 44 44 45 45 45 45 45 45 45 44 44 44 44 44 44 44 44 44 44 44 43 43 43 43 42 43 43 45 46 48
45 46 47 47 46 45 44 43 42 40 39 37 36 35 35 35 36 37 38 39 40 42 43 42 41 39 39 37 35 34 36 37 34 29 26 30 34 36 36 35 35 34 33 30 28 29 33 35 36 35 34 35 37 39 40 41 41 42 42 43 43 44 44 44 44 44 44 44 44 44 44 45 45 44 44 44 44 43 43 43 42 42 43 45 46 48
46 45 44 43 42 40 39 37 37 36 35 35 34 33 33 33 34 35 36 37 38 40 41 42 42 42 41 39 37 37 38 39 36 31 28 31 35 38 37 36 36 36 35 34 33 32 33 35 35 34 33 34 35 37 39 40 41 41 42 42 43 44 45 45 45 44 45 45 45 46 46 46 46 46 45 45 44 44 43 43 43 43 44 45 47 48
43 41 39 38 37 36 36 35 35 35 35 35 35 35 35 35 35 36 36 37 38 40 41 42 43 43 43 41 41 42 43 43 40 36 33 34 37 38 38 38 37 37 36 36 37 38 37 37 37 36 36 35 36 37 39 40 41 42 42 42 43 45 47 47 47 46 47 47 48 48 47 47 47 46 46 45 45 44 44 43 43 43 44 45 46 48
38 37 36 36 36 36 36 35 35 35 36 36 37 37 37 37 37 37 37 38 39 40 41 43 44 44 44 43 42 42 44 44 43 39 36 36 37 39 39 39 37 36 35 35 36 37 37 39 38 37 36 36 36 37 39 40 41 42 42 42 44 45 47 48 48 48 48 48 48 48 48 48 47 46 46 45 45 44 44 43 43 42 42 43 45 46
35 35 35 35 36 36 36 35 35 36 37 37 37 37 37 37 37 38 38 39 39 40 41 42 43 44 45 45 44 43 44 44 43 40 38 37 39 40 41 41 39 36 35 35 35 34 33 36 37 36 35 35 36 37 38 39 40 40 41 41 43 44 45 46 46 46 47 47 47 47 47 47 47 47 46 46 46 45 45 44 43 42 42 42 43 44
35 36 35 35 35 35 36 36 37 37 38 37 37 37 37 37 37 37 38 39 39 40 41 42 43 44 45 46 47 48 49 48 46 44 43 43 43 43 42 42 41 38 36 36 36 35 34 35 36 36 36 36 36 37 37 37 37 37 38 39 41 43 44 45 45 45 45 46 46 47 47 48 48 48 48 48 48 47 46 46 45 44 44 43 43 44
35 35 34 34 34 35 36 37 37 37 37 37 37 36 36 36 36 36 37 37 38 39 40 40 41 42 43 45 46 48 49 49 48 46 46 46 47 46 45 45 44 42 39 39 39 39 38 38 37 36 36 36 36 35 36 36 36 36 38 40 41 43 44 45 45 45 45 46 47 48 49 49 49 50 50 50 50 49 48 47 47 46 46 46 46 46
34 34 34 34 34 35 36 36 37 37 37 36 36 35 34 34 34 34 35 35 36 37 37 38 39 40 40 41 43 44 45 45 45 44 43 44 45 47 47 47 47 47 45 44 43 43 42 40 38 36 36 36 36 37 36 36 36 37 40 42 43 44 45 47 47 48 48 48 49 50 51 51 51 51 51 51 51 51 50 50 50 50 49 49 49 50
33 33 33 34 34 35 36 36 37 36 36 35 34 34 34 33 34 34 35 35 35 35 36 36 37 38 38 38 39 39 40 40 40 39 38 38 40 42 46 47 47 47 47 47 47 46 45 43 41 39 37 36 37 37 37 36 37 38 41 43 45 46 47 48 48 49 49 50 50 51 51 52 52 52 52 52 52 52 52 52 52 52 52 51 51 50
34 34 34 35 35 35 36 36 36 36 35 35 34 34 34 35 35 36 35 35 35 35 35 36 36 36 37 36 36 36 35 35 34 33 33 35 36 38 41 44 45 46 46 47 47 47 46 45 45 44 43 40 39 38 38 38 38 39 40 40 40 42 44 45 45 46 47 48 49 50 50 51 51 51 51 51 51 52 52 53 53 53 53 52 52 51
33 34 35 36 36 36 36 36 36 35 35 35 35 35 35 35 35 35 35 35 35 35 35 35 35 36 35 35 34 33 32 31 30 30 30 31 33 35 37 40 41 42 43 42 42 42 41 41 40 40 40 39 39 38 37 36 34 34 33 33 34 36 38 39 39 40 41 43 44 45 46 47 48 49 49 50 50 51 51 52 52 52 52 52 52 52
33 34 35 36 36 36 36 36 36 36 35 35 35 35 34 34 34 34 33 33 33 33 34 34 34 34 34 34 32 31 29 27 26 27 28 30 32 34 35 37 39 39 39 37 36 36 35 35 34 34 33 33 33 32 32 33 33 32 31 32 34 36 37 39 39 39 38 39 40 42 42 44 45 46 47 48 49 50 51 51 51 51 51 51 51 51
33 34 35 36 36 37 37 37 36 36 35 35 34 34 34 33 33 33 32 32 31 32 32 32 32 32 32 32 31 29 28 27 27 27 27 27 28 29 31 32 34 36 36 36 36 36 36 36 35 34 34 34 34 35 37 38 39 40 40 40 41 41 40 43 45 45 44 44 44 45 44 44 45 46 47 47 48 49 49 49 49 49 49 49 50 50
33 34 35 36 36 36 36 36 36 36 35 35 34 34 34 33 33 32 31 30 30 30 29 30 30 30 29 29 28 28 28 27 27 26 26 25 25 25 25 25 26 28 29 30 30 31 32 32 32 32 32 32 33 34 36 38 40 41 42 42 42 41 40 42 45 46 46 46 45 45 44 43 43 44 44 45 45 46 46 47 47 47 48 48 48 48
32 34 34 35 35 36 36 36 36 35 35 34 34 34 34 33 32 31 30 29 28 28 27 28 27 27 26 27 28 28 28 27 27 26 25 25 24 24 23 22 22 22 22 22 23 24 24 24 24 26 27 28 29 29 30 32 34 35 36 36 36 36 37 38 38 37 37 37 38 38 38 38 38 38 39 40 41 42 43 43 44 45 45 45 46 46
32 33 34 34 35 35 35 35 36 35 35 34 34 33 33 33 32 30 29 28 27 26 26 26 25 24 23 25 26 27 28 28 27 26 26 25 24 23 22 21 20 19 18 18 18 19 19 18 18 19 21 22 23 24 25 26 26 28 29 29 28 28 28 28 28 27 27 27 28 29 31 31 32 33 33 35 36 38 40 41 41 42 43 44 45 45
31 32 33 34 34 35 35 35 35 35 34 34 33 33 33 32 31 29 28 27 26 25 25 25 24 23 22 23 24 25 26 26 27 27 26 24 22 21 19 18 16 15 13 13 12 13 13 13 12 13 14 16 19 20 21 21 21 21 21 22 21 20 19 19 19 18 18 19 21 23 25 26 26 27 29 30 32 34 36 37 38 38 38 39 41 43
30 32 33 33 34 35 35 35 35 34 34 33 33 33 32 31 29 28 27 26 25 25 24 24 23 23 22 23 23 23 23 24 25 25 24 23 20 18 15 13 11 10 9 9 9 9 9 8 8 9 11 14 17 19 20 19 18 17 16 16 15 14 14 14 14 13 13 14 16 18 19 20 21 22 24 26 28 29 28 26 25 24 25 27 30 34
30 31 32 32 33 34 34 34 34 34 33 33 32 32 31 30 28 26 25 25 24 23 23 22 22 22 22 22 22 23 23 23 23 23 22 21 19 16 14 12 11 10 11 11 11 10 8 8 9 10 11 12 15 17 18 17 16 14 13 12 11 11 10 10 10 9 9 10 11 13 14 16 18 20 20 19 18 16 14 14 14 14 16 17 19 22
29 30 30 31 32 33 33 34 33 33 32 32 31 31 30 29 27 26 25 24 23 22 21 21 20 20 20 21 21 21 21 22 22 22 21 20 19 17 16 15 16 16 16 15 13 10 7 8 11 13 14 14 15 16 17 16 15 13 11 10 9 9 8 7 7 6 6 6 6 8 9 11 12 12 10 8 8 10 13 17 20 22 23 22 20 18
29 29 30 30 31 32 32 32 32 31 31 30 29 29 28 28 27 26 25 24 23 22 21 20 19 18 18 19 19 19 19 19 19 19 19 19 18 18 17 17 17 16 13 9 6 6 8 12 15 17 18 19 18 17 18 17 15 12 10 9 9 8 8 7 6 6 6 6 4 3 3 3 3 3 5 8 12 15 17 20 22 24 27 28 26 21
Wind_Direction
285 287 288 289 289 289 289 289 289 289 290 290 291 291 291 290 289 289 289 288 288 288 288 289 289 290 292 293 293 294 294 294 294 294 293 293 292 292 291 291 290 289 288 287 286 284 283 281 280 278 277 275 273 271 270 269 268 267 267 266 265 265 265 265 265 265 266 267 268 269 270 270 270 270 270 270 270 269 269 269 269 270 270 270 270 270
286 287 287 288 288 287 287 289 289 288 288 289 290 290 291 290 289 289 289 288 288 288 288 289 289 290 292 293 294 295 295 295 294 294 294 294 293 293 292 292 291 290 289 288 287 286 284 283 282 281 279 278 276 274 272 270 268 267 266 266 265 264 264 263 263 263 263 264 265 266 267 267 268 268 268 268 268 267 267 267 267 267 267 268 269 269
287 287 287 287 287 287 287 288 289 289 288 288 289 290 290 289 289 288 288 288 288 288 288 288 289 290 292 293 294 295 295 295 294 294 294 293 293 293 292 291 291 290 289 288 287 286 285 285 283 282 281 280 278 277 275 273 271 269 267 265 264 264 263 263 262 262 262 262 263 264 265 266 266 266 266 266 266 266 266 266 266 266 267 267 268 269
285 286 286 288 288 287 286 287 288 289 289 288 289 289 289 288 287 288 288 288 288 288 289 289 290 291 291 293 294 294 295 294 294 293 292 292 292 291 290 289 289 288 287 287 286 286 285 285 284 283 282 280 279 278 277 275 274 271 269 267 265 264 263 263 263 262 262 263 263 264 265 265 266 266 267 266 266 266 266 266 266 267 267 267 268 268
284 284 285 287 287 286 287 287 288 288 288 288 288 288 288 287 287 287 288 288 288 288 289 289 290 290 290 291 292 293 293 292 292 291 290 289 289 288 287 287 286 286 285 285 285 285 284 283 282 282 281 280 279 277 276 275 274 273 271 269 267 266 265 265 265 265 265 265 265 265 265 266 267 268 268 267 267 267 267 266 266 266 267 267 267 267
284 284 285 286 285 285 287 287 287 287 288 288 287 287 286 286 286 286 286 286 287 287 287 287 287 287 287 288 289 290 290 290 289 289 288 287 286 286 285 285 284 284 284 284 284 283 282 280 280 280 280 280 278 277 275 274 273 272 271 269 268 267 267 266 266 266 266 267 266 266 267 267 268 268 268 268 267 267 267 266 266 266 266 266 266 266
284 284 285 285 284 285 285 286 286 286 286 286 286 286 286 286 285 285 285 285 286 286 286 286 285 285 285 286 287 289 289 289 288 287 287 286 285 284 283 283 283 283 283 283 282 282 281 279 279 279 280 279 278 277 275 274 272 271 270 269 267 267 266 266 266 266 267 267 267 267 267 267 268 268 268 268 267 267 267 266 266 265 265 265 265 266
283 285 284 284 284 285 285 284 284 284 284 284 285 285 285 286 286 285 285 286 286 286 286 286 286 285 285 286 287 288 288 288 288 288 288 286 286 285 285 284 284 284 284 284 284 283 282 281 280 280 280 280 279 278 276 274 272 271 269 268 267 266 265 265 265 265 266 266 266 267 267 267 267 267 267 267 266 266 266 265 265 265 265 265 265 265
281 283 284 283 283 284 285 285 284 283 283 282 282 283 284 285 286 286 285 284 284 283 283 283 284 284 284 286 286 285 285 285 286 287 287 287 287 287 287 287 287 287 287 286 286 285 284 284 283 282 281 281 280 279 278 276 274 273 271 269 267 266 265 264 264 264 264 265 265 266 266 266 266 266 266 266 265 265 264 264 264 264 264 264 264 265
280 281 282 283 283 283 283 283 284 285 284 282 281 280 280 281 282 284 284 283 282 281 280 279 280 281 283 284 284 283 282 283 283 283 284 284 284 285 286 286 286 286 286 286 286 286 285 284 284 283 283 282 282 281 280 279 277 276 274 272 270 268 266 265 264 264 264 264 264 265 265 265 266 266 265 265 264 264 263 263 263 264 264 264 264 264
280 280 281 283 283 283 281 281 283 285 285 283 281 280 278 277 278 279 281 281 282 281 280 279 278 278 280 280 281 281 281 280 281 281 281 280 280 280 280 280 279 280 280 282 282 283 283 283 282 282 282 282 281 281 280 280 279 279 278 276 274 272 270 268 267 265 265 264 264 264 265 265 265 265 265 265 264 264 263 263 263 263 263 263 264 264
280 281 281 282 283 283 282 282 283 284 283 282 280 279 278 277 276 276 276 278 280 281 282 281 279 278 278 279 280 280 280 279 278 279 279 279 278 277 276 275 274 274 274 276 277 277 278 279 280 280 280 280 280 280 280 280 279 279 279 279 278 276 274 272 270 268 267 266 265 265 265 265 266 266 265 265 264 264 264 263 263 263 263 263 263 264
279 280 281 281 281 281 282 282 282 282 281 279 277 277 277 278 278 276 274 275 278 280 281 281 280 279 278 278 279 278 277 276 275 275 276 276 275 275 274 272 272 272 272 272 273 274 275 276 278 279 279 279 280 280 280 279 279 279 279 279 279 278 277 275 273 271 269 267 266 266 266 266 267 267 266 265 264 264 263 263 263 263 263 263 263 264
279 280 280 280 280 280 281 281 281 280 279 277 277 277 277 278 278 276 274 273 276 279 280 280 279 279 280 279 278 276 275 274 273 273 273 272 272 272 272 270 270 270 270 269 269 270 272 273 274 276 278 279 279 280 279 279 278 278 278 278 278 278 277 276 274 272 270 268 267 266 266 266 267 267 266 265 264 263 262 262 262 262 263 263 263 264
280 280 280 280 280 280 280 280 280 279 279 279 278 278 278 278 277 275 273 274 276 279 280 278 279 280 280 279 278 276 275 273 272 272 272 271 271 270 269 269 268 268 267 267 267 268 269 269 270 272 274 276 278 278 279 279 278 277 277 277 277 277 276 275 273 272 270 268 267 266 266 266 267 267 266 264 263 262 262 262 262 262 262 262 263 263
280 280 279 279 280 280 280 279 278 278 279 279 278 277 276 276 276 276 274 274 276 277 278 278 279 280 281 281 280 278 276 274 272 272 272 272 272 271 269 267 266 266 266 266 266 267 268 268 268 268 270 273 275 277 278 277 277 277 276 276 275 274 274 273 272 271 270 268 267 266 266 266 266 266 265 264 262 262 261 261 261 261 261 262 262 262
280 279 279 279 280 280 280 279 278 278 278 279 278 277 275 274 274 275 273 274 276 276 274 276 278 280 281 283 282 280 277 275 274 273 273 273 274 274 271 267 265 266 268 270 270 269 269 268 267 267 269 271 273 275 277 276 276 276 275 274 273 273 272 272 271 270 269 268 267 267 266 266 267 266 265 264 263 262 261 261 261 261 261 261 261 262
280 279 279 279 278 279 280 280 278 277 277 278 278 278 276 275 274 274 273 274 273 273 273 274 275 276 279 281 281 280 278 276 275 274 274 274 275 276 274 270 267 266 268 270 272 272 271 270 270 270 270 271 272 273 274 274 274 273 273 272 272 271 271 271 270 270 269 268 267 266 266 266 266 266 265 264 263 262 261 261 261 261 261 262 262 262
279 278 278 278 277 277 279 279 278 277 276 277 278 278 277 276 275 274 273 272 272 272 272 272 273 274 275 276 278 279 278 276 274 273 273 273 275 276 275 272 269 268 269 270 272 273 273 272 271 272 272 272 272 272 272 272 272 272 271 271 270 270 270 270 269 269 269 267 266 266 265 265 265 265 264 264 263 262 262 262 262 262 262 262 262 262
279 278 277 276 276 277 277 278 278 277 276 277 277 276 275 276 275 274 273 273 272 272 272 272 273 273 274 275 276 278 278 276 274 272 272 272 273 274 274 272 270 269 269 269 271 272 271 271 270 269 269 270 271 271 272 272 272 272 271 270 270 269 268 268 267 267 267 266 265 265 265 264 264 264 264 263 263 262 262 262 262 262 262 262 262 262
276 276 277 277 276 276 275 277 278 278 277 277 276 274 274 275 275 274 273 273 273 272 273 272 272 273 274 274 276 277 277 276 274 273 272 272 273 273 273 272 270 269 270 270 271 270 270 269 269 268 268 269 270 272 272 273 273 273 272 270 269 268 268 267 266 266 265 265 265 264 264 264 263 263 263 263 263 262 262 262 262 262 262 262 262 262
274 275 278 278 276 275 275 277 278 278 277 276 275 274 274 274 274 274 274 274 274 274 274 273 273 274 274 275 276 276 276 275 273 272 272 272 272 273 274 272 269 267 267 268 269 269 269 267 267 267 269 270 271 271 271 272 272 272 271 270 269 268 268 267 266 265 265 264 264 263 263 263 263 263 263 263 263 263 263 263 263 263 263 262 262 262
276 276 277 277 276 275 275 276 277 277 276 275 274 274 274 273 273 273 274 274 275 274 274 274 275 275 275 275 275 276 275 273 272 270 269 269 270 271 273 272 269 266 265 266 267 268 267 267 267 268 269 270 270 270 270 270 270 270 270 269 269 268 267 267 266 265 265 264 264 263 263 263 263 263 263 263 263 264 264 264 264 264 264 264 264 263
278 277 277 277 277 276 275 275 275 276 276 276 275 274 273 272 272 273 274 274 274 274 273 274 274 274 274 274 274 274 273 272 269 267 266 266 268 270 271 271 269 267 265 265 266 266 266 266 266 267 267 268 269 269 268 269 269 268 268 268 268 267 267 266 266 265 265 265 264 264 263 263 263 263 263 263 264 264 265 265 265 264 264 264 264 264
280 280 280 281 280 279 278 277 278 280 281 280 279 277 277 278 279 279 278 277 276 275 275 274 273 273 273 273 273 273 273 272 269 265 263 263 266 268 269 268 267 265 264 266 267 266 265 264 264 265 266 266 267 268 268 267 268 268 268 268 267 266 266 266 266 265 265 265 264 264 264 263 263 263 263 264 264 264 265 265 265 265 264 264 264 264
286 287 287 286 285 284 285 286 286 287 286 285 284 285 288 289 289 288 286 283 282 281 280 277 275 274 275 275 275 275 276 274 271 266 263 263 265 267 268 267 265 263 264 266 266 265 264 263 264 264 265 266 266 267 267 267 268 268 268 268 268 267 267 266 266 265 265 264 264 264 264 264 264 264 264 264 265 265 265 265 265 264 264 264 264 265
291 290 290 289 288 288 289 289 289 288 286 285 285 286 288 288 287 285 283 282 282 282 281 279 278 278 278 278 277 277 278 277 274 270 268 266 265 265 267 267 265 263 263 265 266 265 263 262 263 263 264 264 265 266 266 267 267 268 268 268 267 267 266 266 265 265 265 264 264 264 264 264 264 265 266 265 265 265 265 265 265 265 265 265 266 265
296 295 293 292 291 291 291 290 289 289 288 287 286 286 286 284 283 281 280 280 280 279 278 277 277 278 279 279 278 278 278 276 274 272 270 268 265 264 267 268 267 265 264 265 267 267 265 263 262 263 263 263 263 264 266 267 268 268 268 268 267 267 267 266 266 266 266 265 265 265 265 265 266 267 267 267 267 267 266 266 266 266 266 266 267 267
299 297 296 294 293 292 292 291 291 290 289 289 289 288 287 283 280 278 278 279 279 278 276 275 274 275 277 278 279 279 278 275 273 271 269 266 264 264 266 267 266 265 265 266 267 268 266 264 262 262 262 263 263 263 265 267 268 269 270 270 270 270 269 269 269 269 268 267 267 267 266 267 268 269 269 269 269 269 268 267 267 267 267 267 267 267
298 296 295 294 294 294 294 294 293 293 293 292 292 291 288 285 281 279 280 280 279 276 274 274 273 273 274 276 277 278 277 275 273 271 268 264 263 263 266 266 265 264 263 263 266 268 268 266 264 263 263 265 265 265 266 268 269 271 273 273 274 274 273 273 272 271 271 270 270 269 269 270 271 271 270 270 270 270 269 268 268 267 267 267 267 267
297 297 296 297 297 298 298 299 299 299 299 298 297 296 294 291 288 286 284 283 280 277 275 274 273 272 272 272 273 274 275 276 276 274 270 266 265 265 267 267 266 265 262 259 260 265 269 270 269 267 266 267 268 268 269 270 271 272 273 274 275 275 275 275 275 274 273 272 272 272 272 272 272 272 272 271 271 271 270 269 268 267 267 267 267 267
299 299 300 301 302 303 304 304 305 305 306 305 305 303 301 299 296 293 290 287 283 279 276 274 272 272 271 269 268 268 272 275 276 276 272 270 269 269 269 268 267 266 264 260 257 259 265 270 271 271 270 268 268 269 270 270 270 271 272 272 273 273 275 275 275 274 274 273 273 273 273 273 273 273 272 271 271 271 270 269 267 267 266 266 266 267
302 304 305 306 307 308 309 310 310 311 310 310 309 308 306 304 301 297 295 291 288 283 278 275 272 271 270 269 267 268 270 273 275 275 273 270 269 269 269 268 267 266 265 262 258 257 259 263 267 269 270 268 267 267 268 268 268 269 269 269 269 271 273 274 274 273 273 273 273 273 273 273 272 272 272 271 270 270 269 269 268 267 266 266 266 266
308 310 311 312 313 313 314 314 313 312 311 310 310 309 307 306 303 301 299 296 292 288 283 278 274 272 271 270 269 269 271 273 275 276 273 269 267 267 268 267 265 264 263 262 261 259 258 260 262 266 268 269 268 268 267 268 268 268 267 267 267 269 271 273 273 273 273 273 273 273 274 274 273 273 272 272 272 271 270 270 269 268 268 267 266 266
316 317 317 317 317 316 315 314 312 312 311 311 310 309 308 307 305 304 301 299 296 292 288 283 279 276 273 271 270 271 272 275 278 278 275 270 268 267 267 266 265 264 263 262 261 260 259 261 262 263 266 268 270 270 269 270 270 270 269 268 268 269 271 273 273 273 274 274 274 274 275 275 276 275 275 275 275 274 274 274 273 272 271 270 268 267
320 320 319 318 316 314 313 312 312 312 312 311 311 310 309 308 306 305 303 301 299 296 293 290 286 283 280 276 274 274 276 280 283 282 278 274 271 269 267 266 266 265 264 262 261 261 261 263 264 264 265 267 269 270 271 271 271 271 270 270 270 271 273 274 274 274 274 274 274 275 277 277 277 278 278 279 279 279 278 277 276 275 274 272 270 268
320 318 317 316 315 313 312 313 313 313 312 312 312 312 311 310 309 308 306 305 303 301 299 296 294 291 288 285 282 281 283 286 288 287 284 281 276 272 268 267 268 267 264 263 262 262 263 263 265 265 265 265 266 268 271 272 272 271 270 271 271 272 274 275 276 275 275 274 275 276 277 278 278 279 280 281 281 280 279 277 276 275 274 273 272 271
318 316 315 315 315 314 313 314 314 314 314 314 314 314 314 314 313 312 311 310 309 307 305 303 300 298 297 295 292 291 291 291 291 291 289 286 281 276 271 270 270 269 268 266 265 264 264 263 264 265 265 265 266 267 269 271 271 271 271 272 273 273 274 275 276 276 276 275 276 277 278 278 278 278 279 280 280 279 277 277 277 277 276 276 275 275
317 315 314 315 315 315 316 316 316 317 318 318 318 319 319 319 318 317 316 314 312 311 309 307 306 305 303 302 301 299 298 297 296 295 293 290 286 281 276 273 271 271 271 270 269 267 265 264 264 265 266 267 268 269 270 270 270 270 272 273 274 274 274 275 275 275 275 275 276 276 277 277 277 276 276 277 276 276 275 276 277 278 277 277 275 275
318 317 316 317 318 319 320 320 320 321 322 323 324 324 323 322 321 319 317 316 314 312 311 311 310 309 308 308 307 307 306 304 302 300 296 292 288 283 278 274 273 273 273 272 271 269 267 265 265 265 266 267 268 270 271 271 271 271 272 272 272 273 274 275 275 275 276 275 275 275 275 275 275 275 274 274 274 273 274 275 276 278 278 276 274 273
319 317 318 321 322 323 323 324 325 326 326 327 326 325 323 322 320 318 317 316 315 314 313 313 313 313 313 313 314 314 313 309 304 298 291 285 281 278 275 273 271 271 270 269 269 268 267 266 267 267 268 270 271 273 273 274 274 274 274 273 273 274 275 276 275 275 275 275 275 274 274 274 274 274 274 274 274 275 276 276 277 278 278 277 275 272
321 321 322 324 325 325 326 327 328 329 329 328 326 324 323 321 320 319 318 317 315 315 315 315 315 315 315 317 318 317 313 305 297 291 286 283 280 278 275 272 270 268 267 267 267 267 268 269 270 273 275 276 278 279 280 279 278 278 277 276 277 277 278 277 276 276 276 276 276 276 276 276 276 276 276 276 276 277 278 277 277 276 276 275 274 272
324 325 326 327 327 327 328 329 330 330 329 328 326 324 324 323 323 322 320 318 316 315 315 316 316 317 318 319 319 316 311 305 301 298 296 295 292 288 283 279 275 273 272 273 274 275 275 275 276 278 279 280 280 281 282 282 282 281 281 280 281 282 283 281 281 281 280 280 280 280 279 278 278 277 277 276 276 276 277 276 275 274 273 272 271 271
328 328 329 329 329 329 330 330 330 330 329 328 326 326 326 326 325 324 322 320 318 317 317 317 318 320 321 320 318 316 315 314 313 312 311 309 306 303 299 295 292 289 287 285 285 285 285 284 284 284 284 284 285 286 286 287 287 287 287 287 287 287 286 286 286 286 286 285 284 283 281 279 278 277 276 275 274 274 274 274 274 274 273 273 272 271
330 330 330 330 331 331 332 332 332 331 330 329 328 327 327 327 327 326 324 322 320 319 319 319 321 323 323 321 320 319 320 321 321 320 320 319 317 316 315 313 311 308 305 300 297 295 294 294 294 293 293 293 294 295 296 295 295 294 294 294 293 292 290 290 289 289 288 286 285 283 281 279 276 274 273 272 272 272 273 274 274 275 275 275 274 272
331 331 331 332 333 333 333 333 333 332 331 330 329 329 329 329 329 328 327 325 323 322 321 321 323 325 324 323 322 323 324 325 327 327 327 326 325 324 323 322 320 317 313 309 305 301 298 299 301 303 305 306 306 304 302 301 299 298 297 296 294 292 291 290 288 286 284 282 281 279 278 277 274 272 271 271 272 273 274 275 275 276 276 276 275 274
333 333 334 334 334 334 334 334 334 333 332 331 330 330 330 331 331 331 330 328 327 325 324 323 323 323 323 323 324 325 326 327 329 330 331 331 330 329 328 327 325 323 320 316 313 311 310 308 310 317 326 327 322 315 310 306 302 298 295 293 292 290 287 285 284 281 278 277 276 276 276 275 273 271 270 270 271 272 274 275 276 276 276 274 273 271
336 336 336 336 336 335 335 335 334 333 332 332 331 331 332 333 333 333 333 332 331 329 328 326 325 324 323 323 323 324 326 326 327 329 330 330 330 329 329 328 327 326 324 321 321 323 328 332 338 345 348 341 332 324 317 311 304 297 292 291 291 290 289 287 284 282 279 277 275 275 274 274 273 272 271 273 274 276 279 281 283 283 281 279 275 271
338 338 338 338 337 337 336 335 335 334 334 333 333 333 333 335 336 336 336 336 335 334 332 330 329 327 325 324 324 323 324 324 324 325 325 325 325 323 321 320 317 314 310 307 306 310 324 345 0 6 4 353 341 332 325 318 309 300 294 292 294 296 297 296 295 294 291 286 280 277 275 274 274 274 276 279 284 292 305 321 333 336 329 317 302 286
340 340 340 340 339 338 337 336 336 336 335 335 335 335 335 336 337 338 338 339 339 338 337 335 334 333 332 329 327 326 325 324 323 323 321 321 318 315 311 309 307 305 303 301 299 303 327 4 19 23 23 15 1 349 340 331 319 308 300 301 306 311 314 317 320 323 324 316 300 285 278 274 274 277 285 302 326 344 355 359 0 1 359 354 343 325
342 342 342 342 341 340 338 337 337 337 337 337 337 337 338 339 340 340 341 342 342 342 341 339 339 340 340 338 335 333 331 329 329 327 324 321 317 313 309 307 307 308 311 317 333 5 27 32 32 33 34 32 24 13 2 353 342 331 326 328 333 338 342 347 354 4 12 11 358 328 297 288 300 351 22 19 10 2 359 359 1 4 8 9 8 2
Height
1427 1425 1425 1424 1424 1421 1418 1417 1418 1416 1412 1411 1411 1409 1408 1407 1406 1404 1404 1403 1401 1400 1399 1397 1395 1394 1393 1392 1391 1390 1390 1389 1388 1388 1387 1386 1385 1385 1384 1383 1383 1382 1381 1380 1380 1379 1379 1378 1377 1376 1376 1375 1374 1374 1373 1373 1372 1372 1371 1371 1370 1370 1369 1369 1369 1369 1369 1369 1369 1369 1369 1369 1369 1369 1369 1369 1369 1369 1369 1369 1369 1369 1369 1369 1369 1369
1425 1424 1422 1422 1421 1419 1414 1413 1414 1414 1411 1408 1407 1406 1405 1404 1402 1401 1400 1399 1398 1396 1395 1394 1392 1390 1389 1388 1387 1386 1385 1385 1384 1384 1383 1382 1381 1381 1380 1379 1379 1378 1377 1376 1376 1375 1374 1374 1373 1373 1372 1371 1371 1370 1369 1369 1368 1368 1367 1367 1366 1366 1365 1365 1365 1364 1364 1364 1364 1364 1364 1364 1364 1364 1364 1364 1364 1365 1365 1365 1365 1365 1365 1365 1365 1365
1423 1421 1419 1419 1418 1416 1412 1410 1410 1410 1409 1406 1404 1403 1402 1401 1399 1397 1396 1395 1394 1393 1392 1390 1389 1387 1385 1384 1383 1382 1381 1381 1380 1380 1379 1378 1378 1377 1376 1375 1374 1374 1373 1372 1372 1371 1370 1370 1369 1369 1368 1368 1367 1366 1365 1365 1364 1364 1363 1363 1362 1362 1361 1361 1360 1360 1359 1359 1359 1359 1359 1359 1359 1359 1359 1360 1360 1360 1361 1361 1361 1361 1361 1361 1361 1361
1421 1419 1416 1416 1415 1413 1410 1408 1407 1406 1406 1404 1402 1400 1399 1398 1396 1394 1393 1392 1390 1389 1387 1386 1385 1383 1381 1380 1379 1378 1377 1377 1377 1376 1375 1374 1374 1373 1372 1371 1371 1370 1369 1369 1368 1367 1366 1366 1365 1365 1364 1364 1363 1362 1362 1361 1360 1360 1359 1359 1358 1358 1357 1357 1356 1356 1356 1355 1355 1355 1355 1355 1355 1355 1355 1355 1355 1356 1356 1357 1357 1357 1357 1357 1357 1358
1418 1417 1414 1414 1412 1409 1406 1406 1405 1403 1402 1401 1399 1397 1396 1395 1393 1391 1390 1389 1387 1385 1384 1383 1381 1380 1378 1376 1374 1374 1374 1373 1373 1372 1371 1371 1370 1369 1369 1368 1367 1366 1366 1365 1364 1364 1363 1362 1361 1361 1360 1359 1359 1358 1358 1357 1357 1356 1355 1355 1354 1354 1354 1353 1353 1352 1352 1351 1351 1351 1351 1350 1350 1351 1351 1351 1351 1352 1352 1353 1353 1353 1353 1354 1354 1354
1414 1414 1413 1412 1409 1406 1404 1403 1402 1401 1400 1398 1396 1394 1393 1391 1390 1389 1387 1385 1384 1383 1381 1379 1378 1376 1374 1373 1371 1370 1370 1369 1369 1368 1368 1367 1366 1365 1365 1364 1363 1363 1362 1361 1360 1360 1359 1358 1358 1357 1356 1355 1355 1354 1354 1353 1353 1352 1352 1351 1351 1350 1350 1349 1349 1349 1348 1348 1347 1347 1347 1347 1346 1346 1347 1347 1347 1348 1348 1348 1349 1349 1349 1349 1349 1349
1411 1411 1411 1409 1406 1404 1402 1400 1399 1399 1398 1396 1393 1391 1390 1389 1387 1386 1384 1382 1381 1379 1378 1376 1374 1373 1371 1369 1368 1367 1366 1365 1364 1364 1363 1363 1362 1361 1361 1360 1359 1359 1358 1358 1357 1356 1355 1354 1354 1353 1352 1351 1351 1350 1349 1349 1348 1348 1347 1347 1347 1346 1346 1346 1345 1345 1344 1344 1344 1343 1343 1343 1342 1342 1343 1343 1343 1344 1344 1344 1344 1344 1344 1345 1345 1345
1409 1407 1407 1406 1404 1401 1399 1397 1396 1396 1396 1394 1391 1389 1386 1385 1384 1383 1381 1379 1378 1376 1374 1372 1370 1368 1366 1365 1364 1363 1362 1360 1359 1359 1358 1358 1357 1356 1356 1355 1355 1354 1354 1353 1353 1352 1351 1350 1349 1349 1348 1347 1346 1346 1345 1344 1344 1344 1343 1343 1342 1342 1342 1342 1341 1341 1341 1340 1340 1339 1339 1339 1339 1339 1339 1339 1339 1339 1339 1339 1340 1340 1340 1340 1340 1341
1408 1404 1403 1402 1401 1399 1395 1393 1392 1393 1393 1391 1389 1387 1384 1381 1380 1379 1377 1375 1374 1373 1372 1369 1366 1364 1362 1361 1360 1359 1358 1356 1355 1354 1353 1352 1352 1351 1351 1350 1350 1349 1349 1349 1348 1347 1347 1346 1345 1344 1343 1343 1342 1341 1340 1340 1339 1339 1339 1338 1338 1338 1337 1337 1337 1337 1336 1336 1336 1335 1335 1335 1334 1334 1334 1334 1334 1335 1335 1335 1335 1335 1335 1336 1336 1336
1406 1403 1400 1398 1398 1397 1394 1390 1388 1388 1390 1389 1386 1384 1382 1379 1377 1375 1373 1371 1369 1369 1369 1367 1364 1360 1357 1356 1355 1355 1354 1352 1351 1350 1349 1348 1347 1346 1346 1345 1345 1344 1344 1343 1343 1342 1342 1341 1340 1339 1339 1338 1337 1337 1336 1335 1335 1334 1334 1334 1333 1333 1333 1333 1332 1332 1332 1332 1332 1331 1331 1331 1330 1330 1330 1330 1330 1330 1330 1330 1330 1331 1331 1331 1332 1332
1403 1401 1399 1396 1394 1393 1392 1389 1386 1385 1386 1385 1383 1380 1379 1378 1376 1373 1370 1367 1365 1365 1365 1363 1361 1358 1355 1353 1352 1351 1351 1349 1346 1345 1345 1344 1343 1343 1342 1341 1340 1339 1339 1338 1338 1337 1337 1336 1335 1335 1334 1334 1333 1332 1332 1331 1330 1330 1329 1329 1329 1329 1328 1328 1328 1328 1328 1328 1327 1327 1327 1327 1326 1326 1326 1326 1325 1325 1326 1326 1326 1326 1327 1327 1327 1327
1401 1399 1397 1394 1392 1390 1389 1386 1385 1384 1384 1382 1380 1377 1375 1374 1374 1372 1368 1364 1361 1361 1360 1359 1357 1355 1353 1351 1349 1348 1348 1345 1343 1341 1340 1339 1338 1338 1337 1336 1336 1335 1334 1334 1333 1332 1332 1331 1331 1330 1330 1329 1329 1328 1327 1327 1326 1326 1325 1325 1325 1324 1324 1324 1324 1324 1323 1323 1323 1323 1323 1323 1323 1322 1321 1321 1321 1321 1321 1322 1322 1322 1322 1322 1322 1323
1398 1396 1394 1392 1389 1387 1386 1384 1383 1382 1381 1379 1378 1375 1372 1371 1370 1369 1365 1361 1358 1357 1357 1355 1352 1350 1349 1348 1347 1346 1344 1343 1340 1339 1337 1335 1334 1333 1332 1331 1330 1329 1329 1328 1327 1326 1326 1326 1326 1326 1325 1325 1324 1323 1323 1322 1322 1321 1321 1321 1320 1320 1320 1320 1319 1319 1319 1319 1319 1319 1319 1319 1318 1318 1317 1317 1317 1317 1317 1318 1318 1318 1318 1318 1318 1318
1395 1394 1392 1389 1386 1384 1383 1382 1381 1379 1377 1376 1374 1372 1369 1368 1367 1366 1363 1359 1356 1354 1354 1351 1348 1345 1344 1344 1344 1343 1342 1340 1338 1336 1334 1332 1330 1330 1329 1327 1326 1325 1324 1324 1322 1320 1320 1321 1321 1320 1320 1320 1319 1319 1318 1318 1317 1317 1317 1316 1316 1316 1316 1315 1315 1315 1315 1315 1315 1315 1315 1314 1314 1314 1314 1314 1313 1313 1313 1313 1313 1313 1313 1313 1314 1314
1393 1391 1389 1385 1383 1381 1380 1379 1378 1375 1373 1372 1371 1369 1367 1365 1364 1363 1360 1356 1353 1352 1351 1348 1344 1341 1339 1339 1339 1340 1339 1337 1334 1332 1330 1327 1326 1326 1326 1324 1323 1321 1321 1320 1317 1316 1316 1316 1316 1315 1315 1315 1315 1314 1314 1313 1313 1313 1312 1312 1312 1312 1311 1311 1311 1311 1311 1311 1311 1310 1310 1310 1310 1310 1310 1309 1309 1309 1309 1309 1309 1309 1309 1309 1309 1309
1391 1389 1386 1383 1380 1378 1377 1376 1374 1372 1369 1368 1368 1366 1364 1362 1360 1359 1357 1354 1351 1349 1348 1345 1341 1337 1333 1333 1335 1336 1336 1334 1331 1328 1325 1322 1321 1321 1323 1322 1319 1318 1317 1316 1314 1313 1312 1312 1312 1311 1311 1310 1310 1310 1310 1309 1309 1309 1308 1308 1308 1308 1307 1307 1307 1307 1307 1307 1306 1306 1306 1306 1306 1306 1306 1306 1305 1305 1305 1305 1305 1305 1305 1304 1304 1305
1388 1386 1383 1380 1377 1374 1373 1373 1371 1369 1366 1365 1364 1362 1361 1358 1356 1354 1353 1351 1349 1347 1344 1342 1339 1335 1329 1327 1329 1332 1334 1331 1328 1325 1322 1319 1316 1317 1319 1318 1316 1313 1312 1312 1310 1309 1309 1308 1307 1307 1306 1306 1306 1306 1306 1305 1305 1304 1304 1304 1304 1303 1303 1303 1303 1303 1303 1303 1302 1302 1302 1302 1302 1302 1301 1301 1301 1301 1301 1301 1300 1300 1300 1300 1300 1300
1385 1383 1380 1377 1374 1371 1369 1369 1367 1365 1364 1362 1360 1359 1357 1354 1353 1350 1349 1347 1345 1343 1340 1339 1336 1333 1329 1324 1323 1326 1331 1330 1326 1323 1320 1315 1312 1312 1314 1314 1312 1310 1308 1306 1304 1304 1304 1303 1302 1302 1302 1302 1303 1303 1302 1302 1301 1300 1300 1300 1299 1299 1299 1299 1299 1299 1299 1298 1298 1298 1298 1298 1298 1297 1297 1297 1297 1297 1296 1296 1296 1296 1295 1295 1295 1295
1381 1379 1377 1374 1370 1367 1366 1364 1363 1362 1360 1359 1357 1355 1353 1351 1349 1348 1345 1343 1341 1339 1337 1334 1332 1329 1326 1322 1319 1321 1326 1327 1324 1320 1317 1313 1309 1308 1309 1309 1308 1306 1303 1301 1299 1299 1299 1298 1298 1297 1297 1298 1298 1298 1298 1297 1297 1297 1296 1296 1295 1295 1295 1295 1294 1294 1294 1294 1294 1294 1294 1294 1294 1293 1293 1293 1293 1292 1292 1292 1291 1291 1291 1291 1291 1291
1376 1374 1372 1370 1367 1364 1361 1359 1359 1358 1357 1355 1354 1352 1349 1346 1345 1344 1342 1340 1338 1336 1334 1331 1328 1324 1322 1319 1316 1317 1321 1323 1321 1318 1314 1310 1306 1304 1305 1305 1304 1302 1299 1297 1295 1295 1295 1294 1294 1294 1293 1293 1293 1293 1293 1292 1292 1292 1291 1291 1291 1291 1291 1291 1290 1290 1290 1290 1290 1290 1290 1289 1289 1289 1289 1289 1288 1288 1288 1287 1287 1287 1286 1286 1286 1286
1370 1367 1365 1366 1364 1360 1355 1354 1354 1354 1354 1352 1350 1348 1344 1342 1340 1339 1337 1336 1334 1332 1331 1328 1324 1320 1319 1316 1313 1313 1317 1319 1318 1314 1311 1307 1303 1300 1301 1303 1302 1299 1295 1292 1291 1291 1292 1290 1289 1289 1288 1287 1287 1288 1288 1287 1287 1287 1287 1286 1286 1286 1286 1286 1286 1286 1286 1286 1286 1285 1285 1285 1285 1284 1284 1284 1284 1283 1283 1283 1282 1282 1282 1281 1281 1281
1365 1361 1359 1360 1360 1357 1352 1350 1349 1349 1349 1349 1347 1344 1341 1339 1337 1335 1333 1332 1331 1329 1327 1324 1320 1317 1315 1313 1309 1309 1313 1315 1315 1312 1309 1305 1299 1294 1295 1299 1299 1296 1292 1289 1287 1287 1288 1287 1285 1284 1283 1282 1283 1283 1283 1283 1282 1282 1282 1282 1282 1282 1282 1282 1282 1282 1282 1281 1281 1281 1281 1281 1280 1280 1280 1279 1279 1279 1278 1278 1277 1277 1277 1276 1276 1276
1361 1357 1354 1355 1354 1352 1349 1347 1345 1344 1345 1345 1343 1340 1339 1337 1334 1332 1329 1329 1327 1324 1322 1319 1316 1313 1311 1308 1305 1304 1307 1310 1310 1309 1307 1301 1294 1289 1290 1294 1295 1293 1288 1285 1284 1284 1284 1283 1281 1279 1278 1278 1278 1278 1278 1278 1278 1278 1278 1277 1277 1277 1277 1277 1277 1277 1277 1277 1277 1277 1276 1276 1276 1275 1275 1274 1274 1274 1273 1273 1273 1272 1272 1271 1271 1271
1356 1353 1350 1349 1348 1346 1344 1342 1341 1340 1340 1339 1338 1335 1334 1332 1330 1328 1326 1325 1323 1320 1318 1315 1312 1308 1304 1303 1301 1300 1300 1304 1305 1305 1303 1297 1291 1287 1286 1289 1290 1288 1283 1281 1281 1281 1280 1279 1277 1275 1274 1273 1273 1273 1273 1273 1273 1273 1273 1273 1273 1273 1273 1273 1273 1273 1273 1273 1272 1272 1272 1272 1271 1271 1270 1270 1269 1269 1269 1269 1268 1268 1267 1267 1266 1266
1354 1351 1348 1346 1344 1343 1342 1340 1339 1338 1338 1336 1334 1332 1330 1329 1327 1324 1322 1320 1319 1317 1315 1313 1309 1304 1299 1299 1298 1296 1295 1299 1301 1300 1298 1294 1289 1284 1282 1284 1284 1282 1278 1276 1277 1278 1277 1275 1273 1271 1270 1269 1268 1268 1268 1268 1269 1269 1269 1269 1269 1269 1269 1269 1269 1269 1268 1268 1268 1268 1268 1267 1267 1266 1266 1265 1265 1265 1264 1264 1264 1263 1263 1263 1262 1262
1355 1352 1349 1347 1345 1344 1343 1341 1339 1337 1336 1336 1334 1332 1329 1328 1325 1322 1320 1317 1316 1315 1313 1309 1305 1300 1297 1296 1294 1292 1292 1294 1296 1296 1294 1291 1286 1281 1278 1278 1279 1278 1274 1272 1272 1273 1273 1270 1268 1267 1266 1264 1264 1264 1264 1264 1264 1264 1264 1264 1264 1264 1264 1264 1264 1264 1264 1264 1264 1263 1263 1263 1262 1262 1262 1261 1261 1260 1260 1259 1259 1259 1259 1258 1258 1258
1351 1349 1346 1344 1342 1339 1337 1334 1333 1332 1332 1331 1329 1328 1326 1325 1322 1319 1315 1314 1314 1314 1311 1307 1302 1298 1295 1294 1291 1289 1289 1291 1292 1292 1290 1288 1283 1278 1273 1273 1274 1274 1272 1269 1268 1268 1268 1266 1264 1262 1261 1260 1260 1260 1260 1260 1260 1260 1260 1260 1260 1260 1260 1260 1260 1260 1259 1259 1259 1259 1259 1258 1258 1257 1257 1257 1256 1256 1255 1255 1254 1254 1254 1254 1254 1253
1345 1343 1340 1338 1336 1334 1332 1330 1329 1328 1326 1325 1324 1324 1323 1322 1319 1314 1310 1309 1310 1310 1307 1304 1299 1296 1293 1290 1287 1286 1286 1287 1288 1288 1288 1285 1280 1274 1269 1270 1271 1271 1269 1266 1264 1264 1264 1262 1259 1258 1257 1256 1256 1256 1256 1256 1256 1256 1255 1255 1255 1255 1255 1255 1255 1255 1254 1254 1254 1254 1254 1254 1253 1253 1253 1252 1252 1251 1251 1250 1250 1250 1250 1249 1249 1248
1340 1338 1336 1334 1332 1330 1329 1327 1325 1323 1322 1320 1319 1319 1318 1318 1315 1311 1307 1307 1307 1306 1302 1299 1297 1294 1291 1288 1284 1282 1281 1281 1282 1284 1284 1282 1276 1269 1266 1267 1268 1268 1267 1265 1262 1260 1259 1257 1255 1254 1253 1253 1253 1252 1252 1251 1251 1251 1251 1251 1250 1250 1250 1250 1250 1250 1250 1250 1249 1249 1249 1249 1249 1249 1248 1248 1247 1247 1246 1246 1246 1246 1246 1245 1244 1243
1336 1334 1332 1330 1328 1326 1324 1322 1320 1318 1317 1316 1315 1314 1313 1313 1311 1308 1305 1304 1304 1302 1299 1296 1294 1292 1289 1287 1283 1279 1275 1274 1277 1279 1280 1278 1272 1267 1265 1265 1265 1265 1265 1264 1261 1258 1254 1252 1251 1251 1250 1250 1249 1249 1248 1247 1247 1246 1246 1246 1245 1245 1245 1245 1245 1245 1245 1245 1245 1245 1245 1245 1244 1244 1244 1244 1243 1243 1242 1242 1242 1242 1242 1241 1240 1239
1331 1329 1327 1325 1323 1321 1319 1318 1316 1314 1313 1311 1310 1309 1309 1307 1306 1304 1302 1301 1300 1298 1296 1293 1290 1289 1287 1285 1282 1276 1271 1269 1272 1276 1277 1274 1269 1265 1264 1264 1262 1261 1262 1262 1260 1256 1251 1248 1247 1248 1249 1248 1246 1245 1244 1243 1243 1243 1242 1242 1241 1241 1240 1240 1241 1241 1241 1241 1241 1240 1240 1240 1240 1239 1239 1239 1239 1238 1238 1238 1238 1239 1238 1237 1236 1235
1328 1326 1324 1321 1319 1318 1316 1314 1312 1311 1309 1308 1307 1305 1304 1303 1302 1300 1299 1298 1296 1294 1292 1290 1287 1285 1284 1282 1279 1274 1269 1266 1269 1273 1274 1271 1266 1262 1261 1261 1259 1258 1259 1259 1257 1254 1250 1246 1244 1244 1246 1245 1244 1242 1241 1240 1239 1239 1239 1238 1238 1237 1236 1237 1237 1237 1237 1236 1236 1236 1236 1235 1235 1235 1235 1234 1234 1234 1234 1234 1234 1234 1234 1233 1232 1231
1324 1323 1320 1318 1316 1315 1313 1311 1309 1308 1306 1304 1303 1302 1301 1299 1298 1297 1295 1294 1293 1291 1289 1286 1284 1282 1280 1278 1275 1271 1267 1264 1266 1269 1270 1268 1264 1260 1259 1258 1257 1255 1254 1254 1252 1250 1248 1244 1241 1240 1241 1241 1240 1239 1238 1237 1236 1236 1236 1235 1234 1233 1233 1233 1233 1233 1233 1232 1232 1231 1231 1231 1231 1231 1231 1230 1230 1230 1230 1229 1230 1230 1230 1229 1228 1227
1322 1319 1318 1315 1314 1312 1310 1308 1307 1305 1304 1302 1300 1299 1298 1296 1294 1293 1292 1290 1289 1287 1285 1283 1281 1279 1276 1274 1271 1267 1264 1262 1263 1265 1266 1264 1261 1258 1255 1254 1253 1252 1252 1250 1249 1247 1244 1241 1239 1239 1237 1236 1235 1235 1234 1234 1233 1232 1232 1232 1231 1230 1229 1229 1229 1229 1228 1228 1228 1227 1227 1226 1226 1226 1226 1226 1226 1225 1225 1225 1225 1225 1226 1225 1224 1223
1319 1317 1315 1313 1311 1309 1307 1306 1304 1303 1301 1299 1298 1296 1295 1293 1291 1290 1288 1287 1285 1283 1282 1280 1278 1276 1274 1271 1268 1264 1260 1259 1260 1262 1262 1261 1258 1255 1253 1251 1250 1250 1249 1247 1245 1244 1242 1239 1237 1237 1235 1233 1231 1230 1230 1230 1229 1229 1229 1228 1227 1226 1225 1225 1225 1225 1224 1224 1223 1223 1222 1222 1221 1221 1221 1221 1221 1220 1220 1220 1220 1221 1221 1221 1220 1219
1317 1315 1313 1311 1309 1308 1305 1304 1302 1300 1299 1297 1295 1294 1292 1290 1289 1287 1285 1284 1282 1280 1278 1276 1274 1273 1271 1269 1265 1262 1258 1256 1257 1258 1258 1257 1255 1253 1250 1247 1247 1247 1247 1244 1242 1241 1239 1237 1235 1234 1234 1231 1229 1227 1226 1227 1227 1226 1225 1224 1223 1222 1221 1221 1221 1221 1221 1220 1219 1218 1218 1217 1217 1216 1216 1215 1215 1215 1215 1215 1215 1215 1215 1215 1215 1215
1315 1313 1311 1310 1308 1306 1304 1302 1300 1299 1297 1294 1293 1291 1290 1288 1286 1284 1283 1281 1279 1277 1275 1273 1271 1269 1267 1265 1263 1259 1256 1254 1254 1254 1253 1252 1251 1250 1247 1244 1243 1244 1244 1242 1240 1238 1237 1235 1233 1231 1230 1229 1227 1224 1223 1224 1224 1224 1222 1220 1219 1219 1218 1218 1218 1217 1217 1216 1215 1214 1214 1213 1213 1212 1211 1211 1211 1210 1210 1210 1210 1210 1210 1210 1210 1209
1314 1312 1310 1309 1307 1305 1303 1300 1298 1296 1295 1293 1291 1289 1287 1285 1283 1281 1279 1278 1276 1274 1272 1270 1268 1266 1264 1262 1259 1257 1254 1252 1250 1249 1249 1248 1247 1246 1244 1242 1240 1240 1240 1239 1237 1236 1234 1232 1230 1229 1227 1225 1223 1222 1221 1221 1220 1219 1218 1217 1216 1216 1215 1214 1214 1214 1213 1212 1211 1210 1209 1209 1208 1208 1207 1206 1206 1206 1205 1204 1204 1204 1204 1204 1204 1204
1314 1311 1309 1307 1305 1304 1301 1299 1297 1294 1293 1290 1289 1286 1284 1282 1280 1278 1277 1275 1273 1271 1269 1267 1264 1262 1260 1258 1256 1254 1252 1250 1248 1246 1245 1244 1243 1242 1241 1239 1237 1236 1236 1235 1234 1233 1231 1229 1228 1226 1224 1222 1220 1219 1218 1218 1217 1216 1214 1214 1213 1212 1211 1210 1210 1209 1209 1208 1207 1206 1205 1204 1204 1203 1202 1202 1201 1201 1200 1199 1199 1199 1199 1199 1198 1197
1312 1310 1308 1305 1304 1302 1300 1297 1295 1293 1290 1288 1286 1284 1281 1279 1277 1275 1274 1272 1270 1268 1266 1264 1262 1259 1257 1255 1253 1251 1249 1247 1245 1243 1242 1241 1240 1239 1238 1237 1235 1234 1233 1232 1231 1230 1229 1226 1224 1223 1221 1220 1218 1216 1215 1215 1214 1213 1213 1211 1209 1207 1206 1206 1206 1205 1204 1203 1202 1201 1200 1199 1199 1198 1197 1197 1196 1196 1195 1194 1194 1194 1194 1193 1193 1192
1311 1309 1306 1304 1301 1299 1298 1295 1293 1291 1288 1286 1284 1281 1279 1278 1276 1274 1271 1269 1267 1265 1263 1261 1259 1256 1254 1252 1250 1248 1246 1244 1243 1241 1240 1239 1238 1237 1236 1235 1234 1232 1231 1230 1229 1228 1226 1225 1223 1221 1220 1218 1216 1214 1213 1212 1212 1211 1211 1209 1207 1204 1204 1203 1203 1202 1200 1199 1198 1197 1196 1195 1194 1194 1193 1192 1191 1191 1190 1190 1189 1189 1188 1188 1187 1186
1310 1307 1304 1302 1299 1297 1295 1293 1291 1289 1286 1284 1282 1280 1279 1277 1275 1272 1270 1267 1265 1263 1261 1259 1256 1254 1251 1249 1247 1246 1245 1244 1242 1240 1239 1237 1236 1234 1234 1233 1231 1230 1229 1228 1226 1225 1224 1224 1222 1220 1219 1217 1215 1213 1211 1210 1209 1209 1209 1207 1205 1203 1201 1200 1199 1199 1198 1196 1195 1194 1193 1192 1190 1189 1188 1188 1187 1186 1185 1185 1184 1184 1183 1182 1181 1180
1308 1305 1303 1300 1298 1296 1293 1291 1289 1287 1285 1283 1281 1279 1277 1275 1273 1271 1268 1266 1263 1261 1259 1257 1254 1252 1250 1247 1246 1244 1243 1241 1240 1238 1236 1235 1234 1233 1231 1230 1229 1228 1227 1225 1224 1223 1221 1221 1220 1218 1216 1215 1213 1211 1208 1206 1205 1205 1204 1204 1203 1201 1199 1196 1194 1195 1194 1193 1192 1191 1189 1188 1187 1185 1184 1183 1182 1181 1181 1180 1179 1179 1178 1177 1176 1175
1307 1304 1301 1299 1297 1294 1292 1290 1288 1286 1284 1282 1280 1278 1275 1274 1272 1269 1267 1264 1262 1259 1257 1255 1253 1251 1249 1247 1244 1243 1241 1239 1238 1236 1235 1233 1232 1231 1229 1229 1227 1226 1225 1224 1223 1221 1219 1218 1217 1215 1214 1212 1211 1209 1207 1205 1203 1202 1201 1200 1199 1198 1196 1193 1191 1190 1189 1188 1187 1186 1185 1184 1183 1182 1180 1179 1178 1177 1176 1175 1174 1173 1173 1172 1171 1170
1305 1303 1300 1298 1296 1294 1291 1289 1287 1285 1283 1281 1278 1276 1274 1272 1270 1268 1266 1263 1260 1258 1256 1254 1252 1250 1248 1245 1243 1241 1239 1238 1236 1235 1234 1232 1231 1229 1228 1227 1226 1225 1224 1222 1221 1219 1218 1216 1215 1213 1212 1210 1209 1208 1206 1204 1202 1200 1199 1197 1196 1194 1192 1190 1189 1188 1186 1184 1183 1182 1181 1180 1179 1178 1177 1175 1174 1172 1171 1171 1169 1168 1167 1166 1165 1164
1304 1302 1299 1297 1295 1293 1290 1288 1286 1284 1281 1279 1277 1275 1273 1270 1268 1266 1264 1262 1260 1258 1255 1254 1252 1249 1247 1244 1242 1240 1238 1236 1235 1234 1232 1231 1229 1228 1227 1226 1224 1224 1222 1221 1220 1219 1217 1216 1214 1213 1211 1209 1208 1206 1204 1203 1201 1199 1197 1195 1194 1192 1190 1189 1187 1186 1184 1183 1181 1179 1179 1178 1177 1175 1174 1172 1170 1169 1168 1167 1166 1164 1163 1161 1160 1158
1304 1301 1299 1296 1294 1291 1289 1287 1285 1283 1280 1278 1276 1274 1272 1269 1267 1265 1263 1261 1259 1257 1254 1253 1251 1249 1247 1244 1242 1240 1238 1236 1234 1232 1231 1230 1229 1227 1226 1225 1224 1223 1222 1221 1219 1218 1217 1215 1214 1213 1211 1209 1207 1205 1203 1202 1200 1198 1196 1194 1192 1191 1189 1187 1186 1184 1183 1181 1180 1178 1177 1176 1174 1173 1171 1170 1169 1167 1166 1164 1163 1162 1160 1158 1156 1153
1303 1300 1298 1295 1293 1291 1289 1286 1284 1282 1279 1277 1275 1273 1270 1269 1266 1264 1262 1260 1258 1256 1254 1252 1250 1248 1246 1244 1242 1240 1238 1236 1234 1232 1231 1229 1228 1227 1226 1225 1224 1223 1222 1221 1219 1219 1217 1215 1214 1213 1211 1210 1207 1205 1202 1201 1199 1198 1195 1194 1192 1190 1188 1186 1185 1183 1182 1180 1179 1177 1176 1174 1173 1171 1170 1168 1167 1165 1164 1163 1161 1159 1157 1155 1152 1149
1302 1300 1297 1295 1293 1290 1288 1286 1284 1281 1279 1276 1274 1272 1269 1268 1266 1264 1262 1259 1258 1256 1254 1252 1250 1248 1246 1244 1242 1240 1239 1237 1235 1233 1231 1230 1229 1228 1226 1225 1224 1223 1222 1221 1220 1219 1217 1216 1214 1212 1211 1210 1208 1205 1202 1200 1199 1197 1195 1193 1191 1189 1187 1186 1184 1183 1181 1179 1178 1176 1175 1173 1172 1170 1169 1167 1166 1164 1163 1161 1159 1156 1154 1151 1148 1145
1301 1299 1297 1295 1293 1290 1288 1285 1283 1281 1279 1276 1274 1271 1269 1267 1265 1263 1261 1259 1258 1256 1254 1252 1250 1248 1246 1244 1242 1240 1238 1236 1234 1233 1232 1230 1229 1228 1226 1225 1224 1223 1221 1220 1219 1218 1217 1216 1214 1213 1211 1210 1208 1206 1203 1200 1199 1197 1195 1193 1191 1189 1187 1185 1184 1182 1180 1179 1177 1175 1174 1172 1170 1169 1168 1167 1165 1163 1160 1158 1155 1153 1150 1148 1145 1141
1300 1299 1296 1294 1292 1290 1288 1285 1283 1281 1278 1276 1274 1271 1269 1266 1264 1263 1261 1259 1257 1255 1254 1252 1250 1248 1246 1244 1242 1240 1239 1237 1235 1233 1232 1230 1229 1228 1226 1225 1224 1222 1221 1220 1219 1218 1217 1216 1214 1213 1211 1210 1208 1206 1204 1201 1199 1197 1195 1193 1191 1189 1187 1185 1183 1182 1180 1178 1176 1174 1173 1171 1170 1169 1167 1165 1163 1161 1159 1156 1154 1151 1147 1144 1141 1137